Terminal Aerodrome Forecast
Issued by NWS

Home | Current Version | Previous Version | Text Only | Print | Product List | Glossary On
Versions: 1 2 3 4 5 6 7 8 9 10 11 12 13 14 15 16 17 18 19 20 21 22 23 24 25 26 27 28 29 30 31 32 33
000
FTUS41 KBOX 231448 AAA
TAFFMH
TAF AMD
KFMH 231448Z 2315/2412 03012G18KT P6SM SCT025 BKN070
     FM231800 04012KT P6SM SCT050
     FM232300 04008KT P6SM SCT250
     FM240400 04004KT P6SM FEW250=

USA.gov is the U.S. government's official web portal to all federal, state and local government web resources and services.